Accueil
METAR-TAF:

METAR-TAF

Aéroports :

Plate-forme pétrolière

P11-b, Pays-Bas

latitude: 52-21-36N, longitude: 3-20-30E, altitude: 24 m

Observation

Le bulletin a été fait il y a 48 minutes, à 01:25 UTC
Vent 14 kt de ouest/nord-ouest, variant entre sud-ouest et nord
Température 6°C
Humidité 87%
Pression 999 hPa
Visibilité 10 km ou plus
Quelques nuages à une hauteur de 300 ft
Nuages épars à une hauteur de 800 ft
Nuages fragmentés à une hauteur de 1600 ft

METAR: EHPG 010125Z AUTO 30014KT 230V360 9999 // FEW003 SCT008 BKN016 06/04 Q0999 RE//

Heure: 03:13 (02:13 UTC)


TAF: absent

Observations et prévisions météorologiques de plus de 4000 aéroports (messages METAR et TAF).

Les stations disponibles sont représentées par des disques jaunes et rouges sur la carte.

Passer la souris dessus pour voir le nom de la station.

Cliquer dessus pour voir les observations et prévisions météorologiques.

Pour changer de carte: cliquez sur les boutons verts avec une croix noire pour zoomer, sur le bouton vert avec un tiret pour effectuer un zoom arrière, ou sur les flèches vertes pour les cartes adjacentes.


METAR-TAF: